QPF
0.04 0.04 0.04 0.04 0.05 0.05 0.06 0.05 0.05 0.05 0.04 0.04 0.03 0.03 0.04 0.04 0.04 0.03 0.03 0.03 0.03 0.03 0.02 0.02 0.01 0.01 0.01 0.02 0.02 0.03 0.03 0.03 0.02 0.02 0.02 0.03 0.05 0.08
0.03 0.04 0.04 0.04 0.04 0.04 0.04 0.04 0.04 0.04 0.04 0.03 0.03 0.03 0.03 0.03 0.04 0.04 0.03 0.03 0.03 0.03 0.02 0.01 0.01 0.01 0.01 0.01 0.02 0.03 0.03 0.04 0.03 0.03 0.03 0.03 0.04 0.05
0.04 0.04 0.04 0.04 0.04 0.04 0.03 0.04 0.04 0.04 0.03 0.02 0.02 0.02 0.02 0.02 0.02 0.04 0.04 0.03 0.03 0.03 0.02 0.01 0.01 0.01 0.01 0.01 0.02 0.02 0.03 0.03 0.03 0.03 0.03 0.03 0.02 0.03
0.05 0.05 0.05 0.05 0.04 0.03 0.03 0.03 0.04 0.05 0.04 0.03 0.02 0.02 0.02 0.02 0.02 0.02 0.03 0.03 0.03 0.03 0.02 0.02 0.02 0.02 0.02 0.02 0.02 0.02 0.02 0.02 0.03 0.02 0.02 0.01 0.01 0.02
0.06 0.06 0.04 0.04 0.04 0.04 0.03 0.04 0.04 0.04 0.05 0.03 0.03 0.03 0.03 0.02 0.03 0.02 0.02 0.03 0.03 0.03 0.03 0.03 0.03 0.03 0.03 0.03 0.03 0.03 0.02 0.02 0.03 0.03 0.03 0.02 0.01 0.02
0.06 0.04 0.04 0.03 0.04 0.04 0.05 0.05 0.06 0.05 0.05 0.05 0.04 0.03 0.03 0.02 0.03 0.03 0.03 0.04 0.03 0.03 0.04 0.04 0.04 0.04 0.04 0.05 0.04 0.03 0.03 0.03 0.03 0.03 0.03 0.02 0.02 0.02
0.06 0.05 0.04 0.03 0.03 0.03 0.03 0.05 0.06 0.06 0.05 0.05 0.05 0.04 0.04 0.04 0.05 0.04 0.04 0.04 0.04 0.04 0.04 0.04 0.03 0.04 0.05 0.06 0.06 0.05 0.04 0.03 0.03 0.03 0.03 0.03 0.03 0.03
0.06 0.05 0.03 0.02 0.02 0.02 0.02 0.03 0.04 0.05 0.06 0.07 0.06 0.05 0.04 0.05 0.05 0.05 0.05 0.04 0.04 0.04 0.04 0.04 0.04 0.04 0.04 0.05 0.05 0.05 0.04 0.03 0.03 0.03 0.03 0.03 0.03 0.03
0.06 0.05 0.03 0.03 0.04 0.03 0.03 0.02 0.02 0.02 0.03 0.04 0.05 0.06 0.06 0.05 0.05 0.04 0.04 0.05 0.04 0.04 0.06 0.06 0.05 0.04 0.03 0.04 0.04 0.03 0.03 0.04 0.03 0.02 0.02 0.02 0.02 0.02
0.03 0.04 0.05 0.06 0.05 0.05 0.04 0.03 0.03 0.03 0.03 0.03 0.03 0.04 0.04 0.04 0.04 0.04 0.05 0.06 0.06 0.06 0.06 0.06 0.06 0.05 0.04 0.05 0.04 0.03 0.02 0.03 0.03 0.03 0.02 0.02 0.02 0.02
0.02 0.03 0.03 0.04 0.04 0.04 0.03 0.03 0.02 0.03 0.03 0.02 0.02 0.03 0.04 0.04 0.05 0.05 0.04 0.05 0.05 0.04 0.04 0.04 0.04 0.05 0.04 0.05 0.04 0.03 0.02 0.02 0.03 0.03 0.03 0.03 0.03 0.03
0.02 0.02 0.02 0.02 0.03 0.02 0.02 0.02 0.02 0.02 0.03 0.03 0.02 0.02 0.03 0.04 0.04 0.04 0.03 0.03 0.03 0.03 0.03 0.04 0.04 0.05 0.05 0.05 0.04 0.03 0.02 0.03 0.04 0.05 0.05 0.05 0.06 0.05
0.03 0.03 0.02 0.02 0.01 0.01 0.01 0.01 0.01 0.02 0.03 0.04 0.04 0.04 0.04 0.04 0.05 0.04 0.04 0.03 0.03 0.02 0.02 0.04 0.05 0.06 0.06 0.05 0.06 0.05 0.04 0.04 0.04 0.05 0.05 0.05 0.04 0.03
0.04 0.03 0.02 0.02 0.01 0.00 0.00 0.01 0.01 0.02 0.03 0.05 0.05 0.04 0.04 0.04 0.05 0.05 0.06 0.05 0.04 0.03 0.03 0.05 0.06 0.06 0.06 0.06 0.06 0.06 0.06 0.06 0.05 0.04 0.04 0.04 0.03 0.03
0.03 0.03 0.01 0.01 0.01 0.00 0.00 0.00 0.01 0.01 0.02 0.04 0.05 0.04 0.04 0.04 0.05 0.05 0.06 0.06 0.05 0.04 0.03 0.04 0.05 0.05 0.05 0.05 0.05 0.05 0.05 0.05 0.04 0.04 0.04 0.04 0.04 0.02
0.02 0.01 0.01 0.01 0.00 0.00 0.00 0.01 0.01 0.01 0.02 0.04 0.04 0.04 0.04 0.04 0.05 0.05 0.06 0.06 0.06 0.04 0.03 0.04 0.04 0.04 0.05 0.05 0.04 0.05 0.05 0.05 0.04 0.04 0.04 0.04 0.04 0.03
0.03 0.02 0.01 0.01 0.01 0.01 0.01 0.01 0.02 0.02 0.03 0.04 0.05 0.05 0.04 0.05 0.05 0.05 0.05 0.05 0.05 0.04 0.04 0.04 0.05 0.05 0.05 0.05 0.05 0.05 0.05 0.04 0.04 0.05 0.06 0.06 0.05 0.03
0.02 0.02 0.02 0.02 0.01 0.02 0.02 0.02 0.02 0.03 0.04 0.05 0.06 0.05 0.05 0.04 0.04 0.04 0.04 0.03 0.03 0.03 0.03 0.04 0.04 0.05 0.05 0.05 0.04 0.04 0.05 0.04 0.04 0.05 0.06 0.05 0.04 0.03
0.02 0.02 0.03 0.02 0.02 0.01 0.02 0.02 0.03 0.03 0.04 0.05 0.06 0.07 0.06 0.05 0.04 0.04 0.04 0.03 0.02 0.03 0.02 0.03 0.04 0.04 0.04 0.04 0.02 0.03 0.04 0.04 0.04 0.04 0.04 0.03 0.03 0.03
0.02 0.02 0.03 0.02 0.02 0.01 0.02 0.02 0.03 0.04 0.06 0.05 0.06 0.08 0.07 0.06 0.06 0.05 0.04 0.04 0.04 0.04 0.03 0.03 0.03 0.02 0.03 0.03 0.03 0.03 0.04 0.04 0.04 0.04 0.05 0.04 0.04 0.03
0.01 0.01 0.02 0.02 0.02 0.02 0.02 0.04 0.04 0.05 0.06 0.06 0.06 0.06 0.06 0.07 0.06 0.05 0.05 0.06 0.06 0.06 0.05 0.04 0.02 0.02 0.03 0.03 0.04 0.04 0.05 0.04 0.04 0.04 0.05 0.05 0.05 0.05
0.02 0.02 0.02 0.02 0.02 0.03 0.04 0.05 0.05 0.06 0.07 0.08 0.08 0.07 0.05 0.05 0.05 0.04 0.04 0.05 0.06 0.06 0.05 0.03 0.02 0.02 0.02 0.03 0.03 0.04 0.04 0.03 0.03 0.03 0.03 0.03 0.03 0.05
0.02 0.02 0.02 0.03 0.03 0.03 0.04 0.06 0.06 0.08 0.08 0.07 0.07 0.07 0.06 0.05 0.05 0.04 0.04 0.04 0.05 0.05 0.05 0.05 0.03 0.03 0.03 0.03 0.03 0.04 0.04 0.03 0.03 0.03 0.03 0.03 0.03 0.03
MSLP
1017.41 1017.52 1017.67 1017.84 1018.03 1018.24 1018.47 1018.68 1018.89 1019.08 1019.24 1019.36 1019.45 1019.49 1019.49 1019.45 1019.38 1019.30 1019.22 1019.15 1019.11 1019.11 1019.14 1019.19 1019.25 1019.29 1019.30 1019.24 1019.11 1018.90 1018.61 1018.25 1017.84 1017.40 1016.95 1016.54 1016.16 1015.85
1017.90 1017.99 1018.09 1018.20 1018.33 1018.47 1018.63 1018.79 1018.97 1019.13 1019.28 1019.41 1019.49 1019.52 1019.50 1019.43 1019.32 1019.18 1019.04 1018.92 1018.83 1018.80 1018.82 1018.90 1019.00 1019.11 1019.19 1019.22 1019.17 1019.02 1018.77 1018.41 1017.98 1017.48 1016.97 1016.46 1015.99 1015.58
1018.41 1018.50 1018.58 1018.65 1018.73 1018.81 1018.91 1019.03 1019.16 1019.29 1019.43 1019.54 1019.61 1019.63 1019.59 1019.49 1019.34 1019.15 1018.95 1018.76 1018.62 1018.54 1018.53 1018.59 1018.70 1018.85 1018.99 1019.08 1019.10 1019.02 1018.82 1018.50 1018.08 1017.57 1017.02 1016.46 1015.93 1015.46
1018.89 1019.01 1019.10 1019.16 1019.21 1019.25 1019.31 1019.37 1019.46 1019.57 1019.67 1019.77 1019.83 1019.83 1019.78 1019.65 1019.47 1019.23 1018.97 1018.72 1018.51 1018.37 1018.30 1018.32 1018.41 1018.55 1018.70 1018.83 1018.90 1018.87 1018.72 1018.46 1018.07 1017.60 1017.06 1016.49 1015.94 1015.45
1019.31 1019.48 1019.59 1019.67 1019.71 1019.74 1019.76 1019.80 1019.85 1019.92 1020.00 1020.07 1020.11 1020.11 1020.04 1019.90 1019.69 1019.43 1019.13 1018.82 1018.54 1018.32 1018.18 1018.13 1018.15 1018.24 1018.37 1018.49 1018.57 1018.57 1018.47 1018.26 1017.94 1017.52 1017.03 1016.51 1015.98 1015.49
1019.66 1019.87 1020.03 1020.13 1020.18 1020.21 1020.22 1020.23 1020.26 1020.30 1020.35 1020.40 1020.43 1020.42 1020.35 1020.20 1019.99 1019.71 1019.38 1019.04 1018.70 1018.41 1018.19 1018.04 1017.97 1017.98 1018.03 1018.10 1018.15 1018.15 1018.08 1017.92 1017.66 1017.31 1016.90 1016.44 1015.98 1015.53
1019.92 1020.16 1020.35 1020.49 1020.56 1020.60 1020.61 1020.61 1020.62 1020.64 1020.67 1020.70 1020.71 1020.70 1020.63 1020.50 1020.29 1020.02 1019.69 1019.32 1018.95 1018.60 1018.29 1018.05 1017.87 1017.77 1017.72 1017.70 1017.70 1017.67 1017.59 1017.46 1017.25 1016.98 1016.64 1016.27 1015.88 1015.50
1020.08 1020.35 1020.57 1020.72 1020.83 1020.88 1020.89 1020.89 1020.89 1020.89 1020.89 1020.90 1020.91 1020.89 1020.83 1020.71 1020.53 1020.28 1019.97 1019.61 1019.23 1018.83 1018.46 1018.13 1017.85 1017.64 1017.47 1017.35 1017.26 1017.18 1017.07 1016.94 1016.77 1016.55 1016.28 1015.99 1015.67 1015.35
1020.17 1020.44 1020.67 1020.84 1020.96 1021.03 1021.05 1021.05 1021.03 1021.01 1021.00 1020.99 1020.98 1020.96 1020.91 1020.81 1020.66 1020.45 1020.17 1019.84 1019.46 1019.05 1018.64 1018.25 1017.89 1017.57 1017.30 1017.08 1016.89 1016.74 1016.59 1016.44 1016.27 1016.08 1015.86 1015.62 1015.37 1015.10
1020.19 1020.46 1020.69 1020.87 1020.99 1021.06 1021.09 1021.08 1021.06 1021.02 1020.98 1020.95 1020.93 1020.90 1020.85 1020.77 1020.65 1020.47 1020.24 1019.94 1019.59 1019.19 1018.77 1018.34 1017.93 1017.54 1017.19 1016.88 1016.62 1016.39 1016.19 1016.00 1015.82 1015.63 1015.44 1015.22 1015.00 1014.78
1020.19 1020.44 1020.66 1020.84 1020.96 1021.03 1021.05 1021.04 1021.00 1020.94 1020.89 1020.83 1020.78 1020.73 1020.68 1020.60 1020.50 1020.35 1020.15 1019.89 1019.57 1019.21 1018.80 1018.37 1017.94 1017.51 1017.12 1016.75 1016.43 1016.14 1015.89 1015.67 1015.46 1015.25 1015.05 1014.84 1014.63 1014.42
1020.18 1020.42 1020.62 1020.79 1020.90 1020.97 1020.98 1020.96 1020.90 1020.83 1020.74 1020.66 1020.58 1020.51 1020.43 1020.35 1020.24 1020.11 1019.93 1019.70 1019.42 1019.08 1018.71 1018.30 1017.88 1017.45 1017.04 1016.65 1016.30 1015.97 1015.69 1015.42 1015.18 1014.96 1014.73 1014.51 1014.29 1014.07
1020.16 1020.39 1020.58 1020.73 1020.83 1020.88 1020.89 1020.85 1020.78 1020.69 1020.59 1020.48 1020.37 1020.27 1020.16 1020.05 1019.93 1019.78 1019.61 1019.39 1019.14 1018.84 1018.50 1018.13 1017.73 1017.33 1016.93 1016.55 1016.18 1015.84 1015.53 1015.25 1014.98 1014.72 1014.47 1014.22 1013.98 1013.75
1020.12 1020.33 1020.51 1020.64 1020.72 1020.76 1020.76 1020.72 1020.64 1020.54 1020.43 1020.30 1020.17 1020.04 1019.90 1019.75 1019.60 1019.43 1019.24 1019.03 1018.78 1018.50 1018.19 1017.86 1017.50 1017.13 1016.76 1016.39 1016.04 1015.70 1015.37 1015.07 1014.78 1014.49 1014.22 1013.95 1013.69 1013.44
1020.01 1020.21 1020.37 1020.48 1020.55 1020.57 1020.56 1020.52 1020.45 1020.36 1020.25 1020.12 1019.98 1019.82 1019.66 1019.48 1019.30 1019.10 1018.88 1018.65 1018.40 1018.13 1017.84 1017.52 1017.20 1016.86 1016.51 1016.17 1015.82 1015.49 1015.16 1014.84 1014.52 1014.22 1013.92 1013.64 1013.37 1013.12
1019.80 1019.99 1020.12 1020.20 1020.25 1020.26 1020.25 1020.21 1020.16 1020.09 1020.00 1019.89 1019.76 1019.61 1019.44 1019.24 1019.03 1018.80 1018.56 1018.31 1018.04 1017.76 1017.47 1017.17 1016.86 1016.54 1016.20 1015.87 1015.53 1015.18 1014.84 1014.50 1014.17 1013.85 1013.54 1013.24 1012.97 1012.73
1019.47 1019.61 1019.71 1019.76 1019.78 1019.79 1019.78 1019.76 1019.74 1019.71 1019.66 1019.59 1019.50 1019.37 1019.21 1019.02 1018.80 1018.56 1018.29 1018.02 1017.73 1017.44 1017.14 1016.83 1016.51 1016.19 1015.85 1015.51 1015.15 1014.79 1014.42 1014.06 1013.70 1013.35 1013.03 1012.73 1012.47 1012.24
1018.98 1019.09 1019.13 1019.15 1019.15 1019.14 1019.14 1019.15 1019.17 1019.18 1019.20 1019.19 1019.15 1019.07 1018.95 1018.78 1018.58 1018.34 1018.07 1017.78 1017.48 1017.17 1016.85 1016.53 1016.20 1015.85 1015.49 1015.11 1014.72 1014.32 1013.91 1013.51 1013.11 1012.74 1012.40 1012.10 1011.85 1011.65
1018.38 1018.42 1018.42 1018.40 1018.37 1018.35 1018.36 1018.40 1018.46 1018.54 1018.61 1018.67 1018.70 1018.69 1018.62 1018.50 1018.33 1018.11 1017.85 1017.57 1017.27 1016.95 1016.62 1016.27 1015.91 1015.54 1015.14 1014.72 1014.28 1013.83 1013.36 1012.91 1012.47 1012.06 1011.69 1011.39 1011.14 1010.96
1017.68 1017.67 1017.62 1017.56 1017.51 1017.49 1017.51 1017.57 1017.67 1017.80 1017.94 1018.07 1018.17 1018.22 1018.21 1018.15 1018.02 1017.84 1017.61 1017.34 1017.05 1016.73 1016.40 1016.04 1015.66 1015.25 1014.82 1014.35 1013.86 1013.35 1012.83 1012.32 1011.83 1011.37 1010.98 1010.65 1010.40 1010.23
1016.91 1016.86 1016.78 1016.70 1016.63 1016.61 1016.64 1016.73 1016.87 1017.04 1017.23 1017.41 1017.57 1017.68 1017.73 1017.71 1017.63 1017.49 1017.30 1017.07 1016.80 1016.49 1016.17 1015.81 1015.42 1014.99 1014.53 1014.02 1013.49 1012.93 1012.35 1011.79 1011.25 1010.75 1010.32 1009.96 1009.69 1009.51
1016.11 1016.04 1015.94 1015.85 1015.79 1015.77 1015.82 1015.93 1016.09 1016.30 1016.52 1016.74 1016.94 1017.09 1017.18 1017.20 1017.16 1017.06 1016.91 1016.71 1016.47 1016.20 1015.89 1015.54 1015.16 1014.73 1014.26 1013.74 1013.17 1012.58 1011.97 1011.36 1010.78 1010.24 1009.76 1009.37 1009.07 1008.85
1015.27 1015.21 1015.12 1015.05 1015.00 1015.01 1015.07 1015.20 1015.38 1015.61 1015.85 1016.09 1016.30 1016.47 1016.58 1016.64 1016.62 1016.56 1016.43 1016.27 1016.06 1015.82 1015.54 1015.23 1014.87 1014.46 1013.99 1013.48 1012.91 1012.30 1011.68 1011.05 1010.43 1009.86 1009.35 1008.91 1008.56 1008.30
Thickness
5690 5690 5689 5689 5690 5689 5688 5685 5679 5674 5675 5680 5682 5684 5683 5681 5679 5677 5676 5675 5673 5671 5669 5667 5665 5664 5663 5661 5659 5658 5656 5655 5654 5652 5650 5648 5647 5646
5687 5686 5686 5686 5686 5686 5685 5684 5682 5676 5673 5677 5677 5679 5678 5677 5675 5673 5672 5671 5669 5668 5666 5665 5663 5661 5660 5658 5656 5654 5652 5651 5649 5647 5645 5643 5642 5640
5684 5683 5683 5682 5681 5681 5681 5680 5678 5676 5671 5673 5674 5674 5673 5672 5670 5669 5668 5667 5666 5665 5664 5662 5660 5658 5656 5654 5652 5650 5648 5646 5644 5642 5640 5638 5636 5634
5680 5679 5679 5678 5677 5676 5675 5674 5674 5673 5669 5667 5668 5668 5668 5668 5667 5665 5665 5665 5663 5663 5661 5659 5657 5655 5652 5650 5647 5645 5643 5641 5638 5636 5634 5632 5630 5629
5676 5675 5674 5673 5671 5671 5670 5669 5669 5669 5668 5665 5664 5664 5663 5664 5662 5661 5661 5660 5660 5659 5658 5656 5653 5651 5648 5646 5643 5641 5639 5636 5633 5631 5628 5626 5625 5624
5672 5671 5670 5668 5667 5666 5665 5664 5664 5663 5662 5661 5659 5659 5659 5659 5657 5655 5653 5654 5654 5655 5653 5652 5650 5648 5645 5642 5639 5637 5634 5632 5629 5626 5623 5621 5620 5618
5666 5666 5665 5663 5662 5661 5660 5659 5658 5657 5656 5655 5654 5654 5653 5651 5650 5650 5648 5648 5649 5649 5648 5648 5646 5644 5641 5638 5635 5633 5630 5627 5624 5621 5618 5616 5614 5612
5660 5660 5659 5658 5657 5656 5655 5654 5653 5651 5650 5648 5648 5647 5647 5647 5646 5644 5642 5640 5640 5644 5643 5642 5643 5641 5639 5636 5634 5630 5627 5623 5620 5617 5613 5610 5608 5606
5656 5655 5655 5655 5653 5652 5650 5649 5648 5647 5645 5644 5643 5642 5642 5642 5640 5638 5637 5635 5635 5638 5637 5636 5638 5636 5637 5635 5632 5629 5625 5620 5616 5613 5609 5606 5603 5600
5651 5650 5649 5648 5648 5646 5645 5644 5643 5643 5642 5641 5641 5640 5640 5638 5636 5634 5633 5632 5633 5634 5634 5630 5632 5632 5633 5630 5629 5626 5622 5617 5613 5609 5605 5602 5599 5596
5646 5646 5645 5643 5642 5640 5639 5638 5638 5638 5639 5639 5638 5637 5635 5634 5631 5629 5627 5625 5625 5628 5630 5627 5627 5627 5627 5625 5624 5622 5618 5614 5610 5606 5602 5598 5595 5592
5641 5641 5641 5639 5637 5635 5633 5632 5631 5632 5633 5634 5633 5632 5631 5630 5628 5625 5624 5621 5620 5621 5625 5623 5622 5620 5619 5621 5620 5617 5613 5610 5606 5602 5598 5595 5591 5587
5635 5635 5635 5634 5631 5629 5628 5627 5627 5627 5627 5627 5627 5628 5628 5627 5626 5624 5623 5620 5617 5617 5620 5618 5615 5614 5612 5613 5614 5613 5611 5608 5603 5599 5596 5593 5590 5586
5630 5631 5630 5627 5625 5624 5622 5623 5622 5620 5620 5620 5621 5622 5623 5623 5624 5623 5621 5620 5618 5616 5615 5613 5611 5609 5607 5606 5607 5608 5608 5606 5602 5598 5595 5592 5588 5586
5625 5624 5623 5621 5620 5619 5618 5617 5616 5615 5615 5615 5616 5618 5620 5620 5620 5619 5617 5616 5614 5613 5612 5611 5608 5607 5604 5602 5602 5602 5601 5601 5599 5597 5593 5590 5587 5585
5617 5616 5615 5615 5614 5614 5613 5612 5611 5611 5611 5612 5614 5615 5616 5616 5615 5614 5612 5610 5608 5608 5609 5608 5606 5604 5601 5601 5598 5597 5596 5595 5595 5593 5591 5588 5586 5584
5611 5610 5610 5610 5610 5610 5610 5610 5610 5609 5608 5609 5610 5610 5611 5611 5611 5610 5608 5606 5604 5603 5603 5604 5604 5602 5600 5598 5595 5594 5594 5593 5592 5590 5588 5584 5583 5582
5606 5607 5607 5607 5608 5608 5608 5609 5609 5609 5609 5608 5608 5609 5608 5608 5607 5607 5605 5603 5601 5601 5600 5600 5600 5598 5596 5595 5594 5593 5591 5590 5589 5588 5585 5581 5579 5578
5603 5605 5605 5606 5606 5607 5608 5608 5609 5609 5609 5608 5608 5608 5607 5607 5605 5604 5603 5601 5599 5599 5599 5598 5597 5595 5591 5590 5592 5591 5588 5587 5586 5584 5581 5579 5576 5575
5603 5604 5604 5605 5605 5606 5607 5608 5609 5609 5608 5608 5607 5607 5607 5605 5604 5602 5601 5600 5598 5597 5596 5597 5596 5594 5591 5589 5588 5587 5587 5585 5582 5579 5578 5576 5573 5571
5603 5604 5604 5605 5606 5606 5607 5608 5608 5608 5608 5607 5607 5607 5606 5604 5602 5602 5601 5599 5596 5595 5594 5595 5596 5595 5593 5589 5586 5584 5583 5581 5580 5576 5574 5571 5569 5567
5603 5604 5605 5606 5606 5607 5608 5608 5607 5607 5606 5606 5605 5605 5605 5604 5602 5601 5600 5598 5596 5595 5595 5594 5594 5593 5590 5586 5583 5581 5579 5577 5576 5574 5571 5569 5566 5564
5601 5603 5604 5605 5605 5606 5606 5606 5605 5605 5604 5604 5604 5604 5604 5603 5602 5601 5600 5599 5597 5595 5594 5592 5590 5589 5587 5584 5581 5578 5576 5574 5573 5570 5568 5566 5565 5563